Location: Devils Gate
(38.4141°N, 119.1707°W)
Time: 09:33:50
(UTC+00:00)

Daily predictions for brighter satellites

Satellite Brightness Start Highest point End
(mag) Time Altitude Azimuth Time Altitude Azimuth Time Altitude Azimuth
deb Chang Zheng 4 4.2 12:00:54 10° N 12:04:35 36° WNW 12:04:35 36° WNW
STARLINK-1025 3.5 12:04:32 55° SW 12:05:23 88° SE 12:09:32 10° NE
Cosmos 2219 Rocket 2.1 12:00:23 10° NNW 12:05:52 58° WSW 12:11:19 10° S
COSMOS 2441 4.3 12:03:19 10° N 12:08:04 64° WNW 12:10:09 32° SW
Meteor 1-31 Rocket 4.4 12:05:56 10° NNE 12:09:33 34° E 12:13:08 10° SSE
STARLINK-1017 3.5 12:09:19 49° SW 12:10:22 84° NW 12:14:31 10° NE
Lacrosse 5 rocket 2.4 12:10:59 26° NW 12:11:15 26° NW 12:14:35 10° NNE
Cosmos 2242 Rocket 4.3 12:12:34 35° W 12:12:44 35° WNW 12:16:57 10° N
Cosmos 158 Rocket 4.4 12:09:53 10° NW 12:14:39 36° W 12:16:58 24° SSW
Cosmos 1980 4.2 12:09:25 10° NNW 12:15:03 62° ENE 12:20:38 10° SSE
STARLINK-81 3.5 12:18:03 40° WSW 12:19:21 72° NW 12:23:23 10° NE
ASTRO E2 4.0 12:18:30 24° SSW 12:19:25 27° S 12:22:46 10° ESE
STARLINK-54 3.6 12:19:55 38° WSW 12:21:14 63° NW 12:25:14 10° NE
BREEZE M DEB (TANK) 2.4 12:22:20 40° NW 12:22:29 41° NNW 12:25:28 10° NE
STARLINK-77 3.6 12:21:16 37° WSW 12:22:42 67° NW 12:26:43 10° NE
STARLINK-25 3.6 12:22:51 35° WSW 12:24:22 65° NW 12:28:22 10° NE
CENTAUR R/B 4.0 12:19:41 10° S 12:24:40 32° ESE 12:30:19 10° NE
STARLINK-1048 3.7 12:23:40 34° WSW 12:25:19 63° NW 12:29:26 10° NE
STARLINK-71 3.7 12:24:42 33° W 12:26:13 56° NW 12:30:11 10° NE
STARLINK-1023 3.9 12:25:07 32° WSW 12:26:50 56° NW 12:30:58 10° NE
STARLINK-79 3.7 12:26:01 32° WSW 12:27:38 60° NW 12:31:38 10° NE
Cosmos 2333 Rocket 2.7 12:22:54 10° NW 12:27:57 34° WSW 12:32:59 10° SSW
SL-16 R/B 4.4 12:23:12 10° N 12:28:01 28° ENE 12:32:49 10° ESE
CZ-4B R/B 4.4 12:24:56 10° NNE 12:29:00 61° E 12:32:50 10° S
STARLINK-78 3.7 12:27:39 31° WSW 12:29:21 58° NW 12:33:19 10° NE
Okean 1 3.8 12:28:34 29° WSW 12:29:48 37° W 12:33:32 10° N
STARLINK-1049 3.8 12:28:26 30° WSW 12:30:16 57° NW 12:34:23 10° NE
SeaSat 1 2.6 12:26:20 10° S 12:31:05 49° WSW 12:35:52 10° NW
STARLINK-57 3.8 12:29:22 29° W 12:31:06 53° NW 12:35:03 10° NE
Nadezhda 4 Rocket 4.4 12:25:52 10° S 12:32:04 67° E 12:38:21 10° NNE
STARLINK-49 3.8 12:30:48 28° WSW 12:32:38 54° NW 12:36:35 10° NE
Cosmos 1975 2.7 12:30:02 10° N 12:34:03 80° W 12:38:03 10° S
STARLINK-27 3.8 12:32:23 27° WSW 12:34:17 52° NW 12:38:14 10° NE
Cosmos 2279 Rocket 3.9 12:28:20 10° NNW 12:34:31 68° W 12:40:41 10° S
STARLINK-1051 3.9 12:33:13 26° WSW 12:35:16 52° NW 12:39:20 10° NE
STARLINK-74 3.9 12:33:57 26° WSW 12:35:56 51° NW 12:39:51 10° NE
Cosmos 1515 3.6 12:32:31 12° SSW 12:35:57 61° W 12:39:43 10° N
BREEZE-M DEB (TANK) 2.6 12:31:57 10° NW 12:36:28 76° SW 12:40:45 10° SE
Cosmos 1743 3.3 12:32:55 10° NNW 12:36:29 36° W 12:40:03 10° SSW
STARLINK-39 3.9 12:35:34 25° W 12:37:36 49° NW 12:41:32 10° NE
Cosmos 1544 3.1 12:35:10 10° N 12:38:48 83° E 12:42:26 10° S
SL-4 R/B 2.1 12:35:10 10° NW 12:39:14 81° NE 12:43:38 10° SE
STARLINK-31 4.0 12:37:11 24° W 12:39:17 47° NW 12:43:12 10° NE
STARLINK-69 4.1 12:39:00 22° W 12:41:09 42° NW 12:45:00 10° NE
STARLINK-21 4.1 12:40:24 22° W 12:42:38 44° NW 12:46:31 10° NE
NOSS 0 Rocket 4.0 12:38:20 10° NNW 12:44:20 56° WSW 12:50:18 10° S
STARLINK-45 4.3 12:42:15 20° W 12:44:32 39° NW 12:48:20 10° NE
STARLINK-1028 4.2 12:42:48 20° W 12:45:16 44° NW 12:49:15 10° NE
GPS 2-04 Rocket1 3.0 12:43:10 21° WSW 12:45:19 46° S 12:48:50 10° ESE
Cosmos 2180 Rocket 4.4 12:39:22 10° NNW 12:45:31 71° W 12:51:43 10° S
STARLINK-70 4.3 12:43:42 20° W 12:46:04 40° NW 12:49:53 10° NE
STARLINK-1007 4.3 12:44:05 19° W 12:46:39 42° NW 12:50:40 10° NE
STARLINK-76 4.2 12:45:10 19° W 12:47:36 40° NW 12:51:26 10° NE
H-2A R/B 2.6 12:44:30 10° NNE 12:48:42 78° E 12:52:44 10° S
Meteor 2-4 Rocket 3.8 12:42:52 10° S 12:48:47 85° W 12:54:45 10° N
STARLINK-23 4.3 12:46:45 18° W 12:49:16 39° NW 12:53:05 10° NE
STARLINK-1021 4.3 12:47:34 18° W 12:50:15 40° NW 12:54:11 10° NE
STARLINK-32 4.3 12:48:22 18° W 12:50:57 38° NW 12:54:45 10° NE
IDEFIX/ARIANE 42P 4.2 12:48:48 10° NNW 12:51:47 16° WNW 12:53:43 13° W
STARLINK-40 4.4 12:49:57 17° W 12:52:36 37° NW 12:56:23 10° NE
Gblst 52 Del rocket 4.4 12:48:00 10° NW 12:54:02 76° NE 12:59:33 10° ESE
STARLINK-44 4.4 12:51:32 16° W 12:54:16 36° NNW 12:58:01 10° NE
STARLINK-1019 4.4 12:52:22 16° W 12:55:17 37° NNW 12:59:09 10° NE
CZ-4B R/B 2.9 12:52:15 10° N 12:56:25 81° WNW 13:00:45 10° SSW
FENGYUN 3A 4.1 12:51:15 10° NNE 12:56:39 66° ESE 13:01:58 10° S
STARLINK-36 4.5 12:54:41 15° W 12:57:34 34° NNW 13:01:17 10° NE
Cosmos 1782 Rocket 4.3 12:54:34 10° NNW 12:58:20 29° W 13:02:04 10° SSW
CZ-2C R/B 3.0 12:54:19 10° N 12:58:24 32° WNW 13:02:24 10° SW
Cosmos 2237 Rocket 2.2 12:53:12 10° NNW 12:58:46 61° WSW 13:04:20 10° S
STARLINK-1031 4.1 12:56:03 10° SW 13:00:08 61° SE 13:04:16 10° NE
ALOS 2.5 12:56:36 10° NNE 13:01:17 75° ESE 13:05:57 10° S
Cosmos 1484 Rocket 2.7 12:57:42 10° N 13:01:35 71° WNW 13:05:21 10° SSW
STARLINK-1060 4.2 12:58:26 10° SSW 13:02:29 56° SE 13:06:32 10° ENE
ATLAS CENTAUR R/B 1.3 13:05:07 15° W 13:06:18 28° NW 13:08:14 10° NNE
Cosmos 2221 Rocket 3.9 13:02:01 10° SSW 13:06:18 44° W 13:10:35 10° N
STARLINK-1030 4.0 13:03:22 10° SW 13:07:26 62° SE 13:11:32 10° NE
Cosmos 1356 3.8 13:07:24 10° N 13:10:50 67° E 13:14:13 10° SSE
Cosmos 2219 4.2 13:06:38 10° WSW 13:11:31 29° WNW 13:16:27 10° N
ATLAS 3B R/B 3.8 13:05:47 10° S 13:12:04 44° ESE 13:18:18 10° NE
USA 238 DEB 3.8 13:05:50 10° SW 13:12:20 56° NW 13:19:05 10° NNE
STARLINK-1020 3.9 13:08:20 10° SW 13:12:25 69° SE 13:16:33 10° NE
USA 238 3.8 13:05:57 10° SW 13:12:27 57° NW 13:19:12 10° NNE
GENESIS II 4.3 13:10:26 10° SSW 13:14:28 86° WNW 13:18:35 10° NNE
COSMO-SKYMED 1 2.7 13:11:30 10° SSE 13:15:50 87° ENE 13:20:12 10° NNW
STARLINK-1052 3.8 13:13:17 10° SW 13:17:25 77° SE 13:21:33 10° NE
Cosmos 2297 Rocket 3.0 13:12:39 10° WSW 13:17:44 33° WNW 13:22:50 10° N
Cosmos 389 Rocket 3.4 13:16:13 10° SW 13:19:24 29° WNW 13:22:36 10° NNW
METEOR-M 4.1 13:14:32 10° N 13:19:54 80° WNW 13:25:14 10° SSW
